カタログに戻る

THORAD AGENA D DEB

運用中PO
NORAD 4911·DEBRIS·🇺🇸 United States

打ち上げ Apr 8, 1970 から Vandenberg Space Force Base

Loading…

次のパス

TLE

Source: Space-Track
1 04911U 70025FH  26228.44890914  .00001033  00000-0  39494-3 0  9997
2 04911  99.9614 118.2151 0059776 145.0720 215.4404 14.32356416880222

AllMySatでTHORAD AGENA D DEBをリアルタイム追跡

Download on the App Store